Weather reports worldwide

Advertisment
Destin, fl, United States of America (2074404): temperature & dewpoint: 13.02.2020 09:00:00 - 19.02.2020 09:00:00 (CST)Destin, fl, United States of America (2074404): wind speed: 13.02.2020 09:00:00 - 19.02.2020 09:00:00 (CST)Destin, fl, United States of America (2074404): wind direction: 13.02.2020 09:00:00 - 19.02.2020 09:00:00 (CST)Destin, fl, United States of America (2074404): reduced air pressure: 13.02.2020 09:00:00 - 19.02.2020 09:00:00 (CST)Destin, fl, United States of America (2074404): visibility: 13.02.2020 09:00:00 - 19.02.2020 09:00:00 (CST)Destin, fl, United States of America (2074404): precipitation: 13.02.2020 09:00:00 - 19.02.2020 09:00:00 (CST)
Date & Time tt [°C] td [°C] ff [km/h] ff [kn] dd ppp [hPa] vv [km] rr [mm]
19.02.2020 09:00:00 20,6 16,7 11 6 NE 1023,6 16 -
19.02.2020 08:00:00 19,4 17,2 5 3 NE 1022,8 16 -
19.02.2020 07:00:00 18,9 18,3 5 3 NE 1021,8 16 0,0
19.02.2020 06:00:00 19,4 18,9 9 5 N 1021,1 1,2 -
19.02.2020 05:00:00 20,0 19,4 0 0 N 1020,6 1,2 -
19.02.2020 04:00:00 20,0 19,4 0 0 N 1020,0 0,8 0,3
19.02.2020 03:00:00 20,0 19,4 0 0 N 1019,7 0,8 -
19.02.2020 02:00:00 20,0 20,0 0 0 N 1020,0 0,8 -
19.02.2020 01:00:00 20,0 19,4 0 0 N 1020,1 0,8 -
19.02.2020 00:00:00 20,0 19,4 0 0 N 1020,1 0,4 -
18.02.2020 23:00:00 20,0 19,4 8 4 S 1020,0 0,8 -
18.02.2020 22:00:00 18,9 18,9 5 3 S 1020,2 4,8 -
18.02.2020 21:00:00 19,4 18,9 8 4 SSE 1019,6 15 -
18.02.2020 20:00:00 19,4 18,3 13 7 SSE 1019,2 16 -
18.02.2020 19:00:00 19,4 18,3 11 6 SE 1018,6 16 -
18.02.2020 18:00:00 19,4 18,3 13 7 SE 1018,6 16 -
18.02.2020 17:00:00 20,0 18,3 15 8 SE 1018,2 6 -
18.02.2020 16:00:00 20,0 18,3 15 8 SE 1018,3 16 -
18.02.2020 15:00:00 20,6 18,9 15 8 SE 1018,4 16 -
18.02.2020 14:00:00 20,0 18,9 16 9 SE 1018,7 10 -
18.02.2020 13:00:00 20,6 18,9 18 10 SE 1019,3 16 -
18.02.2020 12:00:00 18,9 18,3 16 9 SE 1020,0 1,2 -
18.02.2020 11:00:00 18,9 18,3 16 9 ESE 1020,5 3,2 -
18.02.2020 10:00:00 18,9 18,3 18 10 SE 1020,7 0,8 -
18.02.2020 09:00:00 18,3 18,3 15 8 SE 1020,5 0,4 -
18.02.2020 08:00:00 18,3 17,8 13 7 ESE 1019,9 - -
18.02.2020 07:00:00 17,8 17,8 13 7 SE 1019,0 0,4 -
18.02.2020 06:00:00 17,8 17,2 8 4 ESE 1019,0 0,8 -
18.02.2020 05:00:00 17,2 17,2 9 5 SE 1018,4 1,2 -
18.02.2020 04:00:00 17,2 17,2 11 6 SSE 1018,3 2,0 -
18.02.2020 03:00:00 17,2 17,2 13 7 SSE 1018,1 1,2 -
18.02.2020 02:00:00 17,2 16,7 11 6 SE 1018,4 13 -
18.02.2020 01:00:00 17,2 16,7 11 6 SE 1018,5 16 -
18.02.2020 00:00:00 17,2 16,7 13 7 SE 1018,6 16 -
17.02.2020 23:00:00 17,2 17,2 15 8 ESE 1018,5 16 -
17.02.2020 22:00:00 17,2 16,7 8 4 ESE 1019,0 8 -
17.02.2020 21:00:00 16,7 16,1 8 4 E 1018,6 2,8 -
17.02.2020 20:00:00 17,2 16,7 8 4 NE 1018,9 1,2 -
17.02.2020 19:00:00 17,2 16,7 5 3 E 1018,4 4,8 -
17.02.2020 18:00:00 17,2 16,7 5 3 ESE 1018,3 8 -
17.02.2020 17:00:00 17,8 16,1 11 6 SE 1017,6 16 -
17.02.2020 16:00:00 17,8 15,6 8 4 E 1017,6 16 -
17.02.2020 15:00:00 17,2 16,1 5 3 - 1017,3 6 -
17.02.2020 14:00:00 17,2 15,6 9 5 SSE 1017,2 3,2 -
17.02.2020 13:00:00 16,7 15,0 8 4 SSE 1017,3 3,2 -
17.02.2020 12:00:00 17,8 15,0 8 4 SSE 1017,7 16 -
17.02.2020 11:00:00 16,7 15,0 8 4 - 1018,3 16 -
17.02.2020 10:00:00 15,0 13,9 11 6 NE 1018,4 4,8 -
17.02.2020 09:00:00 14,4 13,9 8 4 ENE 1018,0 15 -
17.02.2020 08:00:00 14,4 13,3 11 6 NE 1017,6 16 -
17.02.2020 07:00:00 13,9 13,3 11 6 ENE 1017,1 16 -
17.02.2020 06:00:00 13,9 13,3 9 5 NE 1016,6 16 -
17.02.2020 05:00:00 13,9 13,3 11 6 NE 1016,1 8 -
17.02.2020 04:00:00 13,9 13,3 9 5 NE 1015,6 10 -
17.02.2020 03:00:00 13,9 12,8 9 5 NE 1015,7 13 -
17.02.2020 02:00:00 13,9 12,8 9 5 NE 1015,8 16 -
17.02.2020 01:00:00 13,9 12,8 11 6 NE 1016,3 16 -
17.02.2020 00:00:00 13,9 13,3 11 6 ENE 1016,2 16 -
16.02.2020 23:00:00 13,9 13,3 11 6 E 1016,7 16 -
16.02.2020 22:00:00 13,9 13,3 11 6 E 1017,2 16 0,0
16.02.2020 21:00:00 15,0 13,9 11 6 N 1017,6 16 0,0
16.02.2020 20:00:00 15,0 14,4 8 4 NE 1016,9 16 -
16.02.2020 19:00:00 15,6 14,4 9 5 E 1016,3 16 0,5
16.02.2020 18:00:00 15,6 13,9 8 4 ENE 1016,2 16 -
16.02.2020 17:00:00 15,6 13,9 5 3 ENE 1016,4 16 -
16.02.2020 16:00:00 16,1 14,4 9 5 ESE 1016,3 16 -
16.02.2020 15:00:00 15,6 13,9 18 10 ESE 1016,2 16 0,0
16.02.2020 14:00:00 15,0 13,3 16 9 ESE 1016,2 16 0,3
16.02.2020 13:00:00 13,9 12,8 22 12 ESE 1017,8 16 1,3
16.02.2020 12:00:00 13,3 11,7 21 11 ESE 1019,7 6 2,0
16.02.2020 11:00:00 13,3 11,1 13 7 NE 1021,9 16 0,0
16.02.2020 10:00:00 12,2 10,6 18 10 NNE 1022,0 16 -
16.02.2020 09:00:00 12,2 10,6 18 10 N 1021,9 16 -
16.02.2020 08:00:00 12,2 10,6 13 7 NE 1021,2 16 0,8
16.02.2020 07:00:00 12,2 10,6 11 6 NNE 1021,8 16 0,3
16.02.2020 06:00:00 12,8 10,6 5 3 NNE 1020,8 16 1,3
16.02.2020 05:00:00 13,3 10,0 13 7 ESE 1020,4 10 1,0
16.02.2020 04:00:00 13,3 7,8 15 8 ESE 1019,5 16 -
16.02.2020 03:00:00 13,3 6,7 11 6 E 1020,4 16 -
16.02.2020 02:00:00 12,8 5,6 8 4 E 1021,5 16 -
16.02.2020 01:00:00 12,8 6,1 11 6 E 1022,2 16 -
16.02.2020 00:00:00 13,3 6,1 8 4 NE 1023,0 16 -
15.02.2020 23:00:00 13,3 6,1 8 4 ENE 1023,6 16 -
15.02.2020 22:00:00 12,2 6,1 0 0 N 1024,0 16 -
15.02.2020 21:00:00 12,2 8,9 0 0 N 1024,5 16 -
15.02.2020 20:00:00 10,6 5,6 0 0 N 1025,0 16 -
15.02.2020 19:00:00 11,1 5,6 0 0 N 1024,6 16 -
15.02.2020 18:00:00 13,3 5,6 0 0 N 1024,2 16 -
15.02.2020 17:00:00 16,1 3,9 0 0 N 1024,9 16 -
15.02.2020 16:00:00 16,7 3,3 8 4 S 1025,3 16 -
15.02.2020 15:00:00 17,8 2,8 9 5 S 1025,3 16 -
15.02.2020 14:00:00 18,3 -1,7 11 6 ENE 1026,0 16 -
15.02.2020 13:00:00 16,7 -2,2 13 7 E 1026,7 16 -
15.02.2020 12:00:00 15,6 -1,1 15 8 E 1027,8 16 -
15.02.2020 11:00:00 14,4 -0,6 13 7 ENE 1029,0 16 -
15.02.2020 10:00:00 12,2 0,6 18 10 NE 1029,1 16 -
15.02.2020 09:00:00 10,0 0,0 18 10 ENE 1029,0 16 -
15.02.2020 08:00:00 8,3 -1,1 16 9 ENE 1029,0 16 -
15.02.2020 07:00:00 7,2 -0,6 16 9 ENE 1028,6 16 -
15.02.2020 06:00:00 7,2 0,0 13 7 NE 1028,3 16 -
15.02.2020 05:00:00 7,2 -1,1 13 7 NNE 1028,3 16 -
15.02.2020 04:00:00 7,2 -1,1 15 8 NE 1027,9 16 -
15.02.2020 03:00:00 7,8 -1,1 18 10 NNE 1028,0 16 -
15.02.2020 02:00:00 8,3 -0,6 13 7 NE 1028,2 16 -
15.02.2020 01:00:00 8,9 -0,6 8 4 - 1028,1 16 -
15.02.2020 00:00:00 9,4 -0,6 13 7 NNE 1028,3 16 -
14.02.2020 23:00:00 10,0 -0,6 13 7 N 1028,6 16 -
14.02.2020 22:00:00 11,1 -0,6 15 8 N 1028,7 16 -
14.02.2020 21:00:00 12,2 0,0 13 7 N 1028,7 16 -
14.02.2020 20:00:00 12,8 1,1 13 7 N 1028,2 16 -
14.02.2020 19:00:00 13,3 0,6 15 8 N 1027,4 16 -
14.02.2020 18:00:00 15,0 -0,6 16 9 N 1026,5 16 -
14.02.2020 17:00:00 16,1 -1,1 21 11 NNE 1025,8 16 -
14.02.2020 16:00:00 17,2 -1,1 18 10 N 1025,2 16 -
14.02.2020 15:00:00 17,8 -0,6 21 11 N 1024,9 16 -
14.02.2020 14:00:00 17,2 0,6 21 11 N 1024,9 16 -
14.02.2020 13:00:00 16,1 0,6 16 9 N 1025,2 16 -
14.02.2020 12:00:00 15,0 1,7 21 11 N 1026,0 16 -
14.02.2020 11:00:00 12,8 1,1 13 7 N 1026,4 16 -
14.02.2020 10:00:00 11,1 1,7 18 10 N 1026,3 16 -
14.02.2020 09:00:00 8,9 2,2 18 10 NNE 1026,3 16 -
14.02.2020 08:00:00 7,8 2,8 22 12 N 1025,9 16 -
14.02.2020 07:00:00 7,8 2,8 22 12 N 1025,2 16 -
14.02.2020 06:00:00 8,3 3,3 21 11 NNE 1024,2 16 -
14.02.2020 05:00:00 8,9 3,9 21 11 N 1023,0 16 -
14.02.2020 04:00:00 9,4 3,9 18 10 NNE 1022,5 16 0,0
14.02.2020 03:00:00 10,0 4,4 26 14 N 1022,0 16 0,3
14.02.2020 02:00:00 10,6 6,1 16 9 N 1022,1 16 -
14.02.2020 01:00:00 11,1 6,7 15 8 N 1022,0 16 0,0
14.02.2020 00:00:00 11,1 7,2 18 10 N 1021,8 16 0,3
13.02.2020 23:00:00 11,7 7,2 26 14 N 1021,8 16 -
13.02.2020 22:00:00 11,7 6,7 21 11 N 1021,1 16 -
13.02.2020 21:00:00 12,2 7,2 28 15 N 1020,4 16 -
13.02.2020 20:00:00 12,8 7,8 24 13 N 1020,3 16 -
13.02.2020 19:00:00 13,3 9,4 28 15 N 1019,1 16 -
13.02.2020 18:00:00 15,0 10,6 26 14 NNW 1017,7 16 -
13.02.2020 17:00:00 17,2 12,2 26 14 NNW 1016,6 16 -
13.02.2020 16:00:00 18,3 13,9 21 11 NNW 1015,6 16 -
13.02.2020 15:00:00 20,0 15,6 5 3 - 1015,0 16 -
13.02.2020 14:00:00 19,4 15,6 15 8 NNW 1014,7 16 -
13.02.2020 13:00:00 19,4 16,1 8 4 NW 1015,0 16 0,0
13.02.2020 12:00:00 18,3 16,7 5 3 NW 1015,5 16 0,0
13.02.2020 11:00:00 18,3 16,1 8 4 NNE 1015,3 16 0,3
13.02.2020 10:00:00 17,2 16,1 13 7 NNW 1015,0 11 3,3
13.02.2020 09:00:00 17,2 16,7 15 8 NNW 1014,5 16 0,0

tt = temperature
td = dewpoint
ff = wind speed
dd = wind direction
ppp = reduced air pressure
vv = visibility
rr = precipitation

Next stations